カタリナ彗星

C/2021 K3 ( Catalina )

English version
Home page
Updated on September 18, 2021

---------------------------------------------------------------------

・ プロフィール

発見日 2021年5月20日
発見光度 21.9等
発見者 Catalina Sky Survey

・ 軌道要素

Epoch 2022 Jan. 21.0 TT = JDT 2459600.5
T 2022 Feb. 2.57950 TT                                  Rudenko
q   5.2308504            (2000.0)            P               Q
z  -0.0012918      Peri.  181.98665     +0.39127163     -0.65539966
 +/-0.0003363      Node   114.44106     -0.83424889     +0.04374970
e   1.0067574      Incl.  134.79570     -0.38850392     -0.75401409
From 19 observations 2021 July 6-Aug. 11, mean residual 0".4.

・ 光度変化

        m1 = 10.0 + 5 logΔ + 10.0 log r

---------------------------------------------------------------------

軌道要素はM.P.E.C. 2021-R75に掲載されたものです。
光度グラフはComet for Windowsで作成したものです。

---------------------------------------------------------------------

Copyright(C) Seiichi Yoshida (comet@aerith.net). All rights reserved.